This is the latest recevied weather packets stored in our database for station/object NE8U. If no packets are shown the sender has not sent any weather packets the latest 10 day(s).
| Time | Temp. | Humidity | Pressure | Rain* | Wind** | Luminosity | Snow |
|---|---|---|---|---|---|---|---|
| 1777992348 | 15.56° C | 96% | 1014 hPa | 0 mm | - | 85 W/m² | - |
| 1777992045 | 15° C | 96% | 1014 hPa | 0 mm | - | 81 W/m² | - |
| 1777991743 | 15° C | 96% | 1014 hPa | 0 mm | - | 68 W/m² | - |
| 1777991440 | 15° C | 96% | 1014 hPa | 0 mm | - | 78 W/m² | - |
| 1777991137 | 15° C | 96% | 1013.8 hPa | 0 mm | - | 101 W/m² | - |
| 1777990834 | 15° C | 96% | 1013.8 hPa | 0 mm | - | 66 W/m² | - |
| 1777990532 | 14.44° C | 96% | 1013.7 hPa | 0 mm | - | 32 W/m² | - |
| 1777989925 | 15° C | 96% | 1013.8 hPa | 0 mm | - | 45 W/m² | - |
| 1777989622 | 15° C | 96% | 1013.7 hPa | 0 mm | - | 51 W/m² | - |
| 1777989318 | 15° C | 96% | 1013.7 hPa | 0 mm | - | 52 W/m² | - |
| 1777989015 | 15° C | 96% | 1013.7 hPa | 0 mm | - | 47 W/m² | - |
| 1777988711 | 15° C | 96% | 1013.6 hPa | 0 mm | - | 44 W/m² | - |
| 1777988408 | 14.44° C | 96% | 1013.5 hPa | 0 mm | - | 45 W/m² | - |
| 1777988105 | 14.44° C | 96% | 1013.5 hPa | 0 mm | - | 49 W/m² | - |
| 1777987800 | 14.44° C | 96% | 1013.2 hPa | 0 mm | - | 39 W/m² | - |
| 1777987497 | 14.44° C | 96% | 1013.5 hPa | 0 mm | - | 34 W/m² | - |
| 1777987195 | 14.44° C | 96% | 1013.5 hPa | 0 mm | - | 26 W/m² | - |
| 1777986891 | 14.44° C | 96% | 1013.1 hPa | 0 mm | - | 24 W/m² | - |
| 1777986589 | 14.44° C | 95% | 1013.1 hPa | 0 mm | - | 18 W/m² | - |
| 1777986287 | 14.44° C | 95% | 1013.4 hPa | 0 mm | - | 16 W/m² | - |
| 1777985984 | 13.89° C | 95% | 1013 hPa | 0 mm | - | 10 W/m² | - |
| 1777985682 | 13.89° C | 95% | 1013.1 hPa | 0 mm | - | 7 W/m² | - |
| 1777985378 | 14.44° C | 94% | 1013.1 hPa | 0 mm | - | 6 W/m² | - |
| 1777985075 | 13.89° C | 94% | 1013 hPa | 0 mm | - | 3 W/m² | - |
| 1777984771 | 13.89° C | 93% | 1013 hPa | 0 mm | - | 1 W/m² | - |
* Rain latest hour (hover to see other rain measurements)
** Current wind speed in m/s (hover to see current wind gust speed)